This is the latest recevied weather packets stored in our database for station/object K7TUS-6. If no packets are shown the sender has not sent any weather packets the latest 10 day(s).
| Time | Temp. | Humidity | Pressure | Rain* | Wind** | Luminosity | Snow |
|---|---|---|---|---|---|---|---|
| 1777645505 | 6.11° C | 23% | 979.5 hPa | - | - | - | - |
| 1777645204 | 6.11° C | 22% | 978.8 hPa | - | - | - | - |
| 1777644903 | 6.11° C | 21% | 978.2 hPa | - | - | - | - |
| 1777644603 | 5.56° C | 25% | 978.4 hPa | - | - | - | - |
| 1777643707 | 4.44° C | 25% | 978.1 hPa | - | - | - | - |
| 1777643407 | 4.44° C | 27% | 977.8 hPa | - | - | - | - |
| 1777642806 | 4.44° C | 30% | 978.2 hPa | - | - | - | - |
| 1777642506 | 3.89° C | 30% | 977.8 hPa | - | - | - | - |
| 1777642205 | 3.89° C | 30% | 977.7 hPa | - | - | - | - |
| 1777639807 | 3.89° C | 29% | 977.6 hPa | - | - | - | - |
| 1777638004 | 3.33° C | 31% | 977.4 hPa | - | - | - | - |
| 1777637108 | 3.89° C | 32% | 977.4 hPa | - | - | - | - |
| 1777635607 | 3.89° C | 32% | 977.8 hPa | - | - | - | - |
| 1777635306 | 3.89° C | 32% | 977.3 hPa | - | - | - | - |
| 1777635006 | 3.89° C | 31% | 977 hPa | - | - | - | - |
| 1777634405 | 3.89° C | 30% | 977.7 hPa | - | - | - | - |
| 1777634104 | 3.89° C | 29% | 977.6 hPa | - | - | - | - |
| 1777633804 | 3.89° C | 30% | 977.9 hPa | - | - | - | - |
| 1777633503 | 4.44° C | 28% | 977.5 hPa | - | - | - | - |
| 1777633204 | 3.89° C | 28% | 977.2 hPa | - | - | - | - |
| 1777632604 | 4.44° C | 29% | 977.3 hPa | - | - | - | - |
| 1777632003 | 4.44° C | 27% | 976.9 hPa | - | - | - | - |
| 1777631708 | 4.44° C | 27% | 977.1 hPa | - | - | - | - |
| 1777631407 | 4.44° C | 27% | 977 hPa | - | - | - | - |
| 1777631107 | 4.44° C | 27% | 977.5 hPa | - | - | - | - |
* Rain since midnight (hover to see other rain measurements)
** Current wind speed in m/s (hover to see current wind gust speed)